Location: Sternwarte ZA, Rosenfeld-Brittheim
(48.2889°N, 8.6789°E)
Time: 04:12:47
(UTC+02:00)

ISS - Pass Details

Date: 23 September 2020
Orbit: 419 x 420 km, 51.6° (Epoch: 21 September)

Event Time Altitude Azimuth Distance (km) Brightness Sun altitude
Rises 20:53:38 0° 265° (W) 2,365 1.3 -16.1°
Reaches altitude 10° 20:55:46 10° 270° (W) 1,502 0.2 -16.4°
Maximum altitude 20:59:04 53° 348° (NNW) 521 -3.2 -17.0°
Enters shadow 21:00:24 31° 51° (NE) 768 -2.7 -17.2°
